Total_Precipitation_Accumulation
0.11 0.34 0.78 1.24 2.08 2.34 1.72 0.96 0.59 0.39 0.43 0.52 0.63 0.76 0.84 1.01 1.43 2.29 2.17 1.77 1.60 1.81 1.90 1.99 2.07 1.92 2.06 2.22 2.28 2.42 2.71 2.88 2.87 2.63 2.59 2.82 3.11 3.34 3.46 3.35 3.35 3.59 4.01 4.23 4.08 3.80 3.58 3.40 3.27
0.25 0.64 1.14 1.70 2.27 1.88 1.36 0.77 0.43 0.33 0.34 0.45 0.51 0.49 0.51 0.57 0.66 1.10 1.63 1.55 1.34 1.41 1.48 1.57 1.83 1.83 1.82 1.99 2.12 2.25 2.45 2.67 2.69 2.53 2.44 2.71 3.05 3.36 3.56 3.54 3.42 3.62 4.01 4.35 4.24 3.94 3.67 3.38 3.13
0.50 0.83 1.33 1.94 1.73 1.24 0.95 0.53 0.38 0.36 0.42 0.51 0.49 0.44 0.54 0.81 0.76 1.04 1.40 1.33 1.23 1.29 1.37 1.68 1.78 1.72 1.76 1.90 1.98 2.08 2.17 2.29 2.40 2.46 2.56 2.83 3.19 3.50 3.59 3.50 3.43 3.51 3.79 4.16 4.26 3.83 3.33 3.05 2.93
0.72 1.09 1.44 1.66 1.13 0.73 0.59 0.44 0.35 0.33 0.49 0.61 0.64 0.56 0.59 0.79 0.89 1.07 1.20 1.16 1.25 1.41 1.46 1.64 1.77 1.65 1.77 1.82 1.78 1.92 2.02 2.13 2.34 2.48 2.61 2.94 3.23 3.43 3.47 3.35 3.30 3.41 3.57 3.78 3.83 3.48 3.00 2.87 2.95
0.87 1.27 1.63 1.24 0.73 0.55 0.49 0.39 0.33 0.33 0.42 0.63 0.72 0.81 0.95 1.09 0.99 0.97 1.04 1.08 1.15 1.32 1.51 1.64 1.71 1.58 1.58 1.53 1.60 1.83 1.94 2.09 2.32 2.42 2.60 2.90 3.18 3.34 3.43 3.36 3.44 3.41 3.48 3.64 3.45 3.14 2.93 3.04 3.02
1.00 1.25 1.27 0.91 0.54 0.43 0.38 0.35 0.36 0.37 0.52 0.61 0.67 0.85 1.25 1.39 1.14 1.00 1.09 1.18 1.17 1.15 1.36 1.58 1.61 1.47 1.40 1.44 1.57 1.74 1.90 2.06 2.25 2.33 2.53 2.86 3.18 3.22 3.04 3.11 3.27 3.12 3.19 3.28 3.10 2.86 2.70 2.85 2.94
0.90 0.93 0.82 0.70 0.59 0.49 0.35 0.31 0.40 0.42 0.70 0.86 0.90 0.94 1.37 1.54 1.19 1.06 1.21 1.34 1.33 1.17 1.29 1.43 1.50 1.43 1.40 1.48 1.68 1.83 1.94 2.14 2.30 2.33 2.55 2.96 3.20 3.16 2.98 2.95 3.02 3.04 3.14 2.95 2.81 2.80 2.65 2.66 2.85
0.54 0.58 0.49 0.46 0.49 0.44 0.34 0.29 0.38 0.45 0.62 0.69 0.85 1.07 1.43 1.38 1.10 1.11 1.28 1.43 1.37 1.30 1.38 1.38 1.46 1.36 1.32 1.44 1.82 2.08 2.18 2.41 2.61 2.67 2.87 3.32 3.38 3.27 3.09 2.87 2.94 3.00 2.97 2.88 2.87 2.88 2.81 2.81 2.96
0.47 0.48 0.44 0.35 0.31 0.32 0.25 0.28 0.30 0.46 0.53 0.57 0.73 0.94 1.22 1.07 1.05 1.23 1.49 1.59 1.51 1.50 1.62 1.56 1.61 1.42 1.44 1.50 1.79 2.21 2.36 2.62 2.95 3.22 3.52 3.84 3.90 3.56 3.48 3.10 3.35 3.40 3.28 3.30 3.31 3.30 3.24 3.15 3.19
0.33 0.36 0.26 0.18 0.18 0.21 0.21 0.26 0.31 0.45 0.82 1.01 1.17 1.15 1.07 1.13 1.20 1.31 1.50 1.66 1.69 1.76 1.60 1.63 1.69 1.55 1.66 1.65 1.99 2.64 2.70 2.99 3.29 3.55 3.68 3.93 4.05 3.99 3.49 3.76 4.24 4.36 4.32 4.32 4.31 4.29 3.98 3.44 3.14
0.23 0.20 0.13 0.12 0.12 0.14 0.17 0.23 0.23 0.39 0.96 1.48 1.62 1.31 1.04 1.23 1.42 1.60 1.68 1.76 1.70 1.80 1.62 1.71 1.81 1.93 2.02 2.35 2.19 2.39 2.84 3.32 3.48 3.67 3.95 4.05 3.84 3.75 3.69 4.10 4.69 4.88 4.85 4.75 4.75 4.73 4.12 3.77 3.75
0.14 0.10 0.10 0.09 0.10 0.13 0.16 0.21 0.24 0.39 0.89 1.29 1.31 1.11 1.03 1.31 1.52 1.77 1.93 2.15 2.26 2.26 2.20 2.14 2.33 2.57 2.60 2.43 2.41 2.28 2.40 2.88 3.39 3.71 3.61 3.77 4.17 4.15 3.93 4.06 4.30 4.53 4.68 4.95 4.64 4.50 4.36 4.18 3.83
0.12 0.10 0.10 0.11 0.14 0.16 0.19 0.20 0.29 0.51 0.63 0.69 0.82 0.90 1.07 1.38 1.72 2.10 2.38 2.64 2.70 3.01 3.18 3.11 3.08 3.02 3.08 3.09 2.96 2.51 2.68 2.75 2.89 3.39 3.50 3.53 3.98 4.29 4.28 4.26 4.43 4.05 4.11 4.51 4.59 4.24 4.28 4.33 4.02
0.11 0.10 0.10 0.13 0.15 0.19 0.22 0.27 0.36 0.61 0.66 0.70 0.78 0.85 1.03 1.49 2.02 2.47 2.65 2.84 3.05 3.73 4.25 4.04 3.86 3.60 3.51 3.57 3.57 3.50 3.15 3.06 2.90 3.22 3.42 3.58 3.96 4.28 4.41 4.41 4.45 3.99 3.82 4.00 4.13 4.02 4.21 4.20 4.05
0.14 0.16 0.20 0.18 0.17 0.24 0.32 0.49 0.57 0.73 0.73 0.75 0.89 0.95 1.10 1.54 1.93 2.61 3.04 3.38 3.61 4.39 4.99 4.76 4.61 4.60 4.42 4.33 4.02 3.63 3.36 3.19 3.40 3.59 3.76 3.90 4.02 4.38 4.59 4.55 4.38 4.21 4.12 4.10 4.02 4.02 4.34 4.06 3.88
0.21 0.25 0.39 0.30 0.22 0.26 0.40 0.88 0.87 0.84 0.76 0.86 1.07 1.01 1.05 1.39 1.89 2.58 3.27 3.85 4.19 4.57 5.03 5.38 4.99 5.41 5.40 5.20 4.81 4.33 4.03 4.02 3.97 3.89 4.07 3.92 3.87 4.02 4.49 4.32 4.04 4.23 4.30 4.38 4.29 4.18 4.30 4.33 4.36
0.30 0.34 0.47 0.43 0.29 0.27 0.38 0.96 0.98 0.74 0.75 0.92 1.10 1.11 1.15 1.42 1.81 2.30 2.95 3.59 4.20 4.80 5.37 5.88 6.07 6.16 5.78 5.51 5.28 5.08 4.72 4.41 3.97 3.58 3.52 3.43 3.25 3.23 3.48 3.52 3.58 3.63 3.82 3.74 3.48 3.83 4.02 4.25 4.41
0.29 0.28 0.35 0.51 0.41 0.30 0.40 0.74 0.88 0.78 0.75 0.96 1.18 1.16 1.22 1.45 1.84 2.25 2.79 3.28 3.98 4.89 5.81 6.25 6.43 6.05 5.64 5.36 5.07 4.97 4.57 4.15 3.78 3.39 3.15 2.99 2.98 2.84 3.04 2.90 2.99 3.18 3.45 3.52 3.60 3.85 3.72 3.63 3.82
0.20 0.26 0.30 0.41 0.33 0.33 0.49 0.76 0.89 0.89 0.92 1.07 1.26 1.26 1.29 1.41 1.80 2.27 2.78 3.26 3.96 4.93 5.95 6.40 6.27 5.70 5.19 4.82 4.50 4.26 3.91 3.60 3.47 3.16 2.82 2.80 2.78 2.82 3.13 2.86 3.21 3.21 3.30 3.28 3.21 3.35 3.31 3.05 3.19
0.20 0.27 0.30 0.37 0.31 0.36 0.52 0.85 1.04 1.14 1.21 1.12 1.18 1.30 1.25 1.42 1.87 2.37 2.95 3.33 3.68 4.27 5.10 5.50 5.22 4.65 4.05 3.84 3.75 3.73 3.65 3.23 3.00 2.93 2.92 2.61 2.63 2.71 2.79 2.97 2.82 2.88 3.11 3.01 2.94 3.27 3.26 2.92 3.00
0.20 0.25 0.30 0.36 0.33 0.43 0.59 1.11 1.41 1.39 1.14 0.93 0.85 1.01 1.06 1.16 1.66 2.39 2.94 3.21 3.49 3.77 3.85 4.00 3.94 3.53 3.24 3.16 3.15 3.17 3.36 3.11 2.82 2.73 2.69 2.47 2.38 2.38 2.53 2.62 2.74 2.86 2.77 2.90 2.97 3.05 3.19 3.12 2.97
0.20 0.17 0.18 0.25 0.38 0.62 0.71 1.52 1.83 1.52 1.26 1.02 0.86 0.87 0.96 1.11 1.51 2.24 2.56 2.70 2.76 2.85 2.74 2.83 2.94 2.88 2.87 2.80 2.81 2.65 2.51 2.50 2.41 2.41 2.38 2.38 2.27 2.22 2.16 2.31 2.56 2.70 2.64 2.90 2.64 2.79 3.08 3.19 2.94
0.18 0.14 0.16 0.25 0.42 0.63 0.88 1.43 1.92 1.66 1.45 1.11 0.84 0.81 0.97 1.01 1.21 1.53 1.66 1.82 1.89 1.95 2.00 2.24 2.61 2.79 2.72 2.63 2.75 2.72 2.38 2.24 2.18 2.23 2.37 2.35 2.26 2.16 2.05 2.15 2.38 2.53 2.59 2.70 2.73 3.03 2.96 2.88 2.86
0.15 0.18 0.25 0.42 0.66 1.14 1.14 1.32 1.80 1.63 1.31 0.94 0.77 0.75 0.70 0.74 0.90 1.08 1.19 1.30 1.37 1.41 1.53 1.78 2.21 2.48 2.46 2.45 2.47 2.40 2.33 2.29 2.23 2.18 2.22 2.19 2.16 2.24 2.33 2.31 2.38 2.36 2.41 2.51 2.62 2.84 2.85 2.80 2.86
0.14 0.21 0.52 0.99 1.48 1.63 1.07 1.22 1.62 1.26 0.93 0.68 0.55 0.58 0.62 0.75 0.81 0.94 1.14 1.22 1.17 1.12 1.24 1.42 1.72 1.88 1.88 1.99 2.17 2.25 2.31 2.27 2.12 2.06 2.03 1.99 1.83 1.93 2.22 2.41 2.49 2.49 2.48 2.43 2.54 2.60 2.61 2.70 2.84
0.17 0.20 0.41 0.74 0.90 1.06 1.00 1.48 1.64 0.98 0.72 0.61 0.55 0.55 0.66 0.72 0.70 0.77 0.92 0.95 0.95 1.00 1.07 1.21 1.37 1.46 1.55 1.65 1.87 2.05 2.08 2.06 2.02 2.16 2.05 1.89 1.68 1.64 1.86 2.14 2.26 2.25 2.22 2.24 2.69 2.47 2.43 2.62 2.70
0.16 0.16 0.19 0.29 0.39 0.76 1.18 1.45 1.34 0.90 0.66 0.58 0.54 0.50 0.61 0.62 0.56 0.61 0.72 0.78 0.81 0.97 1.06 1.10 1.21 1.31 1.41 1.50 1.77 1.95 1.96 1.91 1.94 2.03 1.95 1.77 1.79 1.68 1.76 1.81 2.09 2.21 2.19 2.25 2.49 2.42 2.38 2.54 2.54
0.13 0.14 0.16 0.23 0.43 0.77 1.21 1.63 1.55 1.18 0.84 0.71 0.56 0.48 0.55 0.55 0.53 0.59 0.64 0.73 0.72 0.74 0.90 1.00 1.07 1.25 1.42 1.50 1.56 1.60 1.76 1.74 1.72 1.67 1.64 1.71 1.77 1.73 1.80 1.89 1.91 2.00 2.15 2.28 2.43 2.29 2.24 2.39 2.47
0.14 0.12 0.13 0.17 0.26 0.56 1.08 1.36 1.03 0.87 0.69 0.67 0.64 0.57 0.56 0.60 0.62 0.62 0.69 0.71 0.66 0.65 0.79 0.92 1.02 1.15 1.26 1.29 1.34 1.45 1.55 1.55 1.52 1.51 1.48 1.59 1.64 1.68 1.70 1.77 1.85 1.86 1.97 2.25 2.55 2.45 2.44 2.48 2.49
0.12 0.10 0.12 0.17 0.22 0.30 0.65 0.87 0.58 0.59 0.57 0.64 0.66 0.68 0.72 0.81 0.80 0.78 0.81 0.78 0.75 0.75 0.79 0.89 0.89 0.95 1.03 1.11 1.20 1.27 1.40 1.43 1.44 1.47 1.59 1.68 1.68 1.64 1.56 1.64 1.71 1.65 1.77 2.06 2.36 2.51 2.62 2.74 2.68